STARLINK-32539, 62022

Orbit data source: Space-Track

STARLINK-32539, 62022 is a payload satellite owned by SpaceX/Seattle (US) in LEO that was launched on Mon, 18 Nov 2024 UTC via an FALCON 9 launch vehicle from the Air Force Western Test Range (AFWTR). Payload-class satellites include a variety of spacecraft equipped with specific instruments for various scientific and technological missions. These include communications satellites like Starlink; space stations such as the ISS; scientific satellites like the Hubble; Earth observation satellites from companies like Planet Labs, Umbra, and HawkEye 360; GPS; miniature CubeSats for education and research; and military/defense satellites.

Loading next visibility...
Identifier
62022, 2024-213Q
Orbit
LEO
Country
Flag of USUS
Related business
Manufacturer
SpaceX/Seattle
Mission
Operational Commercial Communications
Bus & Motor
STARLINK V2M, Unknown motor
Mass
730 kg wet, ~700 kg dry
Launch date (UTC)
2024-11-18 (1 year ago)
Launch vehicle
FALCON 9
Launch site
Air Force Western Test Range (AFWTR)
Object type
Payload
Rocket body
Debris
Shape & HBR
Box + 2 Pan, 17.7 m
Radar Cross Section
33.884 m², Large (>1 m²)

Expand to show TLE details & history
Last TLE update: 1 day ago

TLE from 1 day ago
0 STARLINK-32539
1 62022U 24213Q   25307.46972647  .00028656  00000-0  97573-3 0  9997
2 62022  53.1620  21.8920 0001272  66.4848 293.6287 15.30206649 54003
Epoch: 2025-11-03T11:16Z
TLE epoch observation values (Epoch: 2025-11-03T11:16:24.367Z)
Latitude
Longitude
169.81983°
Altitude
475.746 km
Speed
7.629 km/s
True Right ascension
01h 27m 34s
True Declination
0° 00' 00"
Sunlit
Object was in full shadow at epoch
Visualization orbit readout
Latitude
Unknown
Longitude
Unknown
Altitude
Unknown
Speed
Unknown
Apparent Right ascension
Unknown
Apparent Declination
Unknown
Sunlit
N/A
Visualization observer readout
Local Sidereal Time
08:42:16
Azimuth
Unknown
Elevation
Unknown
Doppler factor
Unknown
Orbital elements
Apogee altitude
476.323 km
Perigee altitude
474.58 km
Semi-major axis
6,853.588 km
Eccentricity
0.00013
Inclination
53.162°
RAAN
21.892°
Arg. of periapsis
66.4848°
True anomaly
293.61535°
Mean anomaly
293.6287°
Eccentric anomaly
293.62202°
Mean motion
3.82531 °/min
Orbital period
94.11 mins
BSTAR
0.00097573
Loading maneuver chart data...
Computing Atmospheric mass density...
Loading historical data...
Loading historical data...
Loading historical data...
Loading historical data...
Loading historical data...
Loading historical data...
Loading historical data...

Documentation

Showing up to 5 results
|